Location: Lafig�re
(44.4503°N, 4.0357°E)
Time: 06:08:29
(UTC+00:00)

Transit 2A Rocket - Pass Details

Date: 21 June 2021
Orbit: 590 x 913 km, 66.7° (Epoch: 26 July)

Event Time Altitude Azimuth Distance (km) Brightness Sun altitude
Exits shadow 00:56:01 20° 267° (W) 1,379 6.1 -20.2°
Maximum altitude 00:58:05 30° 312° (NW) 1,082 6.0 -20.1°
Drops below altitude 10° 01:02:04 10° 15° (NNE) 2,004 8.4 -19.9°
Sets 01:04:38 0° 26° (NNE) 2,957 9.6 -19.7°
